ETH727 LIRF-LFML

Flight info

Callsign ETH727
Flight time 1h 3m
Altitude 38000
Route XENOL5AXPODOX9E/25 PODOX DCT BEGUD DCT MIRSA DCT OMARD DCT STP A3 RUBIT G7 LANKO
Aircraft B772/H-SDE2E3FGHIJ5LORVWXY/LB1D1

Departure

Time 2026-05-06 20:28
Airport Rome–Fiumicino Leonardo da Vinci International Airport (LIRF)

Arrival

Time 2026-05-06 21:32
Airport Marseille Provence Airport (LFML)
Time Latitude Longitude Altitude Speed Heading
2026-05-06 19:45 41.79644 12.24027 16 ft 0 kts 128°
2026-05-06 20:11 41.79645 12.24025 16 ft 1 kts 128°
2026-05-06 20:11 41.79654 12.24010 16 ft 2 kts 128°
2026-05-06 20:12 41.79663 12.23994 16 ft 2 kts 128°
2026-05-06 20:12 41.79672 12.23978 16 ft 2 kts 128°
2026-05-06 20:12 41.79681 12.23963 16 ft 2 kts 128°
2026-05-06 20:12 41.79691 12.23947 16 ft 2 kts 128°
2026-05-06 20:13 41.79697 12.23937 16 ft 2 kts 126°
2026-05-06 20:13 41.79704 12.23919 16 ft 2 kts 101°
2026-05-06 20:13 41.79704 12.23900 16 ft 2 kts 81°
2026-05-06 20:13 41.79703 12.23889 16 ft 1 kts 69°
2026-05-06 20:14 41.79702 12.23885 16 ft 0 kts 70°
2026-05-06 20:19 41.79702 12.23886 16 ft 0 kts 70°
2026-05-06 20:19 41.79709 12.23914 16 ft 6 kts 70°
2026-05-06 20:20 41.79731 12.23993 16 ft 11 kts 70°
2026-05-06 20:20 41.79764 12.24116 16 ft 15 kts 70°
2026-05-06 20:20 41.79793 12.24225 17 ft 9 kts 70°
2026-05-06 20:20 41.79854 12.24282 16 ft 13 kts 357°
2026-05-06 20:21 41.79929 12.24251 16 ft 11 kts 340°
2026-05-06 20:21 41.80017 12.24232 16 ft 14 kts 25°
2026-05-06 20:21 41.80054 12.24331 16 ft 12 kts 70°
2026-05-06 20:21 41.80089 12.24454 16 ft 16 kts 68°
2026-05-06 20:22 41.80133 12.24612 16 ft 19 kts 71°
2026-05-06 20:22 41.80181 12.24790 16 ft 20 kts 70°
2026-05-06 20:22 41.80201 12.24983 16 ft 21 kts 92°
2026-05-06 20:22 41.80232 12.25177 18 ft 19 kts 68°
2026-05-06 20:23 41.80281 12.25349 19 ft 20 kts 70°
2026-05-06 20:23 41.80333 12.25537 19 ft 22 kts 69°
2026-05-06 20:23 41.80386 12.25731 19 ft 21 kts 70°
2026-05-06 20:23 41.80438 12.25926 21 ft 22 kts 70°
2026-05-06 20:24 41.80492 12.26130 23 ft 24 kts 71°
2026-05-06 20:24 41.80550 12.26324 20 ft 24 kts 68°
2026-05-06 20:24 41.80607 12.26553 18 ft 27 kts 71°
2026-05-06 20:24 41.80675 12.26787 16 ft 24 kts 69°
2026-05-06 20:25 41.80721 12.26955 16 ft 14 kts 70°
2026-05-06 20:25 41.80763 12.27047 16 ft 12 kts 24°
2026-05-06 20:25 41.80820 12.27036 16 ft 5 kts 339°
2026-05-06 20:25 41.80845 12.27023 16 ft 0 kts 339°
2026-05-06 20:27 41.80867 12.27012 17 ft 7 kts 339°
2026-05-06 20:27 41.80944 12.26968 18 ft 14 kts 314°
2026-05-06 20:27 41.80945 12.26888 16 ft 4 kts 250°
2026-05-06 20:27 41.80902 12.26734 16 ft 50 kts 249°
2026-05-06 20:28 41.80684 12.25942 23 ft 129 kts 249°
2026-05-06 20:28 41.80300 12.24555 206 ft 176 kts 249°
2026-05-06 20:28 41.79931 12.23079 1100 ft 167 kts 245°
2026-05-06 20:28 41.79527 12.21722 1980 ft 156 kts 245°
2026-05-06 20:29 41.79301 12.20304 2564 ft 161 kts 264°
2026-05-06 20:29 41.79273 12.18829 3166 ft 161 kts 264°
2026-05-06 20:29 41.79235 12.17269 3580 ft 176 kts 264°
2026-05-06 20:29 41.79189 12.15570 3985 ft 192 kts 265°
2026-05-06 20:30 41.79140 12.13706 4424 ft 207 kts 265°
2026-05-06 20:30 41.80246 12.09838 5330 ft 247 kts 298°
2026-05-06 20:30 41.81165 12.07788 5727 ft 268 kts 298°
2026-05-06 20:31 41.82138 12.05628 6412 ft 276 kts 297°
2026-05-06 20:31 41.83140 12.03404 7205 ft 280 kts 298°
2026-05-06 20:31 41.84161 12.01133 7712 ft 295 kts 298°
2026-05-06 20:31 41.85253 11.98701 8137 ft 313 kts 298°
2026-05-06 20:32 41.86406 11.96132 8554 ft 329 kts 298°
2026-05-06 20:32 41.87609 11.93449 8954 ft 346 kts 298°
2026-05-06 20:32 41.88857 11.90666 9553 ft 355 kts 299°
2026-05-06 20:32 41.90131 11.87829 10391 ft 356 kts 299°
2026-05-06 20:33 41.91405 11.84985 10968 ft 365 kts 298°
2026-05-06 20:33 41.92738 11.82006 11525 ft 375 kts 298°
2026-05-06 20:33 41.94070 11.79030 12375 ft 376 kts 298°
2026-05-06 20:33 41.95408 11.76038 13265 ft 377 kts 298°
2026-05-06 20:34 41.96764 11.72999 14108 ft 380 kts 298°
2026-05-06 20:34 41.98122 11.69954 14870 ft 385 kts 298°
2026-05-06 20:34 41.99493 11.66877 15639 ft 391 kts 298°
2026-05-06 20:34 42.00903 11.63710 16415 ft 395 kts 298°
2026-05-06 20:35 42.02302 11.60564 17236 ft 398 kts 298°
2026-05-06 20:35 42.03726 11.57358 17947 ft 403 kts 298°
2026-05-06 20:35 42.05171 11.54101 18590 ft 411 kts 298°
2026-05-06 20:35 42.06636 11.50796 19378 ft 414 kts 298°
2026-05-06 20:36 42.08096 11.47500 20204 ft 415 kts 298°
2026-05-06 20:36 42.09566 11.44174 20942 ft 418 kts 298°
2026-05-06 20:36 42.11066 11.40779 21649 ft 422 kts 297°
2026-05-06 20:36 42.12561 11.37393 22356 ft 425 kts 297°
2026-05-06 20:37 42.14063 11.33986 23064 ft 428 kts 296°
2026-05-06 20:37 42.15590 11.30518 23819 ft 429 kts 296°
2026-05-06 20:37 42.17112 11.27057 24525 ft 431 kts 296°
2026-05-06 20:37 42.18642 11.23573 25114 ft 436 kts 296°
2026-05-06 20:38 42.20198 11.20026 25703 ft 441 kts 296°
2026-05-06 20:38 42.21735 11.16518 26314 ft 444 kts 296°
2026-05-06 20:38 42.23318 11.12902 26960 ft 446 kts 295°
2026-05-06 20:38 42.24888 11.09310 27553 ft 449 kts 295°
2026-05-06 20:39 42.26477 11.05669 28085 ft 453 kts 295°
2026-05-06 20:39 42.28078 11.01999 28631 ft 457 kts 295°
2026-05-06 20:39 42.29683 10.98312 29214 ft 459 kts 295°
2026-05-06 20:39 42.31307 10.94581 29799 ft 461 kts 295°
2026-05-06 20:40 42.32929 10.90847 29963 ft 462 kts 295°
2026-05-06 20:40 42.36156 10.83412 29966 ft 454 kts 295°
2026-05-06 20:40 42.37729 10.79792 29961 ft 435 kts 295°
2026-05-06 20:41 42.39248 10.76289 29968 ft 428 kts 294°
2026-05-06 20:41 42.42223 10.69411 29952 ft 407 kts 294°
2026-05-06 20:41 42.43676 10.66035 29976 ft 420 kts 294°
2026-05-06 20:42 42.45168 10.62557 29961 ft 435 kts 294°
2026-05-06 20:42 42.46697 10.58989 29964 ft 449 kts 295°
2026-05-06 20:42 42.48299 10.55252 29953 ft 452 kts 295°
2026-05-06 20:43 42.51429 10.47949 29962 ft 452 kts 295°
2026-05-06 20:43 42.54584 10.40571 29955 ft 452 kts 295°
2026-05-06 20:44 42.57729 10.33198 29958 ft 452 kts 294°
2026-05-06 20:44 42.60885 10.25782 29963 ft 451 kts 294°
2026-05-06 20:45 42.64005 10.18430 29962 ft 452 kts 294°
2026-05-06 20:45 42.67140 10.11023 29957 ft 453 kts 294°
2026-05-06 20:46 42.70267 10.03618 29962 ft 453 kts 294°
2026-05-06 20:46 42.73419 9.96134 29952 ft 453 kts 294°
2026-05-06 20:47 42.76538 9.88710 29955 ft 454 kts 294°
2026-05-06 20:47 42.79676 9.81224 29947 ft 452 kts 294°
2026-05-06 20:48 42.82301 9.73564 29931 ft 436 kts 282°
2026-05-06 20:48 42.83004 9.69624 29718 ft 419 kts 276°
2026-05-06 20:48 42.83552 9.65816 29447 ft 408 kts 276°
2026-05-06 20:48 42.84082 9.62072 29217 ft 397 kts 276°
2026-05-06 20:49 42.84593 9.58435 29004 ft 386 kts 276°
2026-05-06 20:49 42.85085 9.54916 28803 ft 376 kts 275°
2026-05-06 20:49 42.85570 9.51431 28609 ft 369 kts 275°
2026-05-06 20:49 42.86046 9.47972 28413 ft 373 kts 275°
2026-05-06 20:50 42.86521 9.44521 28203 ft 371 kts 275°
2026-05-06 20:50 42.86990 9.41116 28007 ft 369 kts 275°
2026-05-06 20:50 42.87465 9.37662 27810 ft 367 kts 275°
2026-05-06 20:50 42.87932 9.34245 27625 ft 367 kts 274°
2026-05-06 20:51 42.88394 9.30863 27423 ft 365 kts 274°
2026-05-06 20:51 42.88857 9.27471 27231 ft 364 kts 274°
2026-05-06 20:51 42.89319 9.24071 27041 ft 363 kts 274°
2026-05-06 20:51 42.89773 9.20726 26848 ft 362 kts 274°
2026-05-06 20:52 42.90232 9.17337 26655 ft 362 kts 275°
2026-05-06 20:52 42.90687 9.13970 26461 ft 360 kts 275°
2026-05-06 20:52 42.91138 9.10626 26280 ft 359 kts 274°
2026-05-06 20:52 42.91581 9.07330 26088 ft 358 kts 275°
2026-05-06 20:53 42.92028 9.03995 25895 ft 357 kts 275°
2026-05-06 20:53 42.92475 9.00658 25702 ft 355 kts 275°
2026-05-06 20:53 42.92916 8.97354 25509 ft 354 kts 275°
2026-05-06 20:53 42.93351 8.94087 25317 ft 354 kts 275°
2026-05-06 20:54 42.93789 8.90795 25122 ft 353 kts 275°
2026-05-06 20:54 42.94226 8.87496 24934 ft 351 kts 275°
2026-05-06 20:54 42.94656 8.84250 24742 ft 350 kts 275°
2026-05-06 20:54 42.95089 8.80974 24549 ft 349 kts 275°
2026-05-06 20:55 42.95512 8.77765 24368 ft 347 kts 275°
2026-05-06 20:55 42.95940 8.74507 24184 ft 346 kts 274°
2026-05-06 20:55 42.96361 8.71289 23998 ft 344 kts 274°
2026-05-06 20:55 42.96783 8.68067 23809 ft 343 kts 274°
2026-05-06 20:56 42.97199 8.64878 23616 ft 343 kts 275°
2026-05-06 20:56 42.97613 8.61695 23434 ft 344 kts 274°
2026-05-06 20:56 42.98031 8.58480 23245 ft 344 kts 274°
2026-05-06 20:56 42.98444 8.55294 23066 ft 342 kts 274°
2026-05-06 20:57 42.98858 8.52098 22873 ft 340 kts 275°
2026-05-06 20:57 42.99266 8.48929 22694 ft 340 kts 275°
2026-05-06 20:57 42.99681 8.45710 22511 ft 339 kts 275°
2026-05-06 20:57 43.00097 8.42470 22315 ft 338 kts 275°
2026-05-06 20:58 43.00499 8.39338 22133 ft 337 kts 275°
2026-05-06 20:58 43.00904 8.36171 21955 ft 337 kts 275°
2026-05-06 20:58 43.01302 8.33045 21780 ft 336 kts 274°
2026-05-06 20:58 43.01703 8.29900 21602 ft 334 kts 274°
2026-05-06 20:59 43.02097 8.26799 21423 ft 334 kts 274°
2026-05-06 20:59 43.02495 8.23656 21243 ft 333 kts 275°
2026-05-06 20:59 43.02885 8.20571 21062 ft 331 kts 274°
2026-05-06 20:59 43.03273 8.17497 20888 ft 330 kts 274°
2026-05-06 21:00 43.03662 8.14409 20709 ft 329 kts 274°
2026-05-06 21:00 43.04050 8.11319 20527 ft 327 kts 274°
2026-05-06 21:00 43.04428 8.08299 20352 ft 326 kts 274°
2026-05-06 21:00 43.04810 8.05243 20174 ft 327 kts 274°
2026-05-06 21:01 43.05191 8.02187 20000 ft 326 kts 275°
2026-05-06 21:01 43.05569 7.99145 19828 ft 326 kts 275°
2026-05-06 21:01 43.05949 7.96089 19641 ft 324 kts 275°
2026-05-06 21:01 43.06321 7.93087 19470 ft 323 kts 275°
2026-05-06 21:02 43.06695 7.90058 19293 ft 323 kts 275°
2026-05-06 21:02 43.07068 7.87033 19123 ft 322 kts 275°
2026-05-06 21:02 43.07437 7.84034 18948 ft 322 kts 275°
2026-05-06 21:02 43.07808 7.81013 18771 ft 320 kts 275°
2026-05-06 21:03 43.08171 7.78054 18601 ft 319 kts 275°
2026-05-06 21:03 43.08534 7.75084 18430 ft 317 kts 275°
2026-05-06 21:03 43.08897 7.72103 18257 ft 317 kts 276°
2026-05-06 21:03 43.09261 7.69114 18084 ft 316 kts 276°
2026-05-06 21:04 43.09617 7.66183 17915 ft 315 kts 276°
2026-05-06 21:04 43.09977 7.63209 17744 ft 315 kts 276°
2026-05-06 21:04 43.10330 7.60290 17572 ft 315 kts 276°
2026-05-06 21:04 43.10687 7.57327 17397 ft 315 kts 276°
2026-05-06 21:05 43.11046 7.54338 17225 ft 315 kts 276°
2026-05-06 21:05 43.11397 7.51417 17055 ft 314 kts 276°
2026-05-06 21:05 43.11752 7.48447 16886 ft 314 kts 276°
2026-05-06 21:05 43.12101 7.45524 16719 ft 313 kts 277°
2026-05-06 21:06 43.12452 7.42578 16549 ft 313 kts 277°
2026-05-06 21:06 43.12800 7.39655 16385 ft 313 kts 277°
2026-05-06 21:06 43.13148 7.36714 16217 ft 312 kts 277°
2026-05-06 21:06 43.13492 7.33810 16053 ft 312 kts 276°
2026-05-06 21:07 43.13840 7.30859 15883 ft 312 kts 277°
2026-05-06 21:07 43.14184 7.27944 15725 ft 312 kts 277°
2026-05-06 21:07 43.14527 7.25019 15553 ft 311 kts 277°
2026-05-06 21:07 43.14869 7.22104 15375 ft 310 kts 277°
2026-05-06 21:08 43.15210 7.19193 15214 ft 311 kts 277°
2026-05-06 21:08 43.15551 7.16272 15050 ft 311 kts 277°
2026-05-06 21:08 43.15889 7.13366 14879 ft 309 kts 277°
2026-05-06 21:08 43.16227 7.10457 14713 ft 310 kts 277°
2026-05-06 21:09 43.16563 7.07557 14553 ft 311 kts 277°
2026-05-06 21:09 43.16903 7.04618 14382 ft 310 kts 277°
2026-05-06 21:09 43.17238 7.01725 14213 ft 309 kts 277°
2026-05-06 21:09 43.17574 6.98801 14049 ft 309 kts 277°
2026-05-06 21:10 43.17904 6.95930 13893 ft 309 kts 277°
2026-05-06 21:10 43.18237 6.93019 13720 ft 308 kts 278°
2026-05-06 21:10 43.18570 6.90110 13563 ft 307 kts 277°
2026-05-06 21:10 43.18898 6.87237 13398 ft 307 kts 277°
2026-05-06 21:11 43.19226 6.84357 13227 ft 305 kts 278°
2026-05-06 21:11 43.19550 6.81501 13059 ft 303 kts 278°
2026-05-06 21:11 43.19871 6.78664 12909 ft 303 kts 278°
2026-05-06 21:11 43.20195 6.75795 12741 ft 302 kts 278°
2026-05-06 21:12 43.20512 6.72987 12573 ft 302 kts 278°
2026-05-06 21:12 43.20832 6.70138 12408 ft 301 kts 278°
2026-05-06 21:12 43.21149 6.67317 12247 ft 299 kts 278°
2026-05-06 21:12 43.21462 6.64524 12086 ft 299 kts 278°
2026-05-06 21:13 43.21777 6.61707 11925 ft 298 kts 278°
2026-05-06 21:13 43.21970 6.58873 11762 ft 297 kts 272°
2026-05-06 21:13 43.22021 6.56053 11601 ft 296 kts 271°
2026-05-06 21:13 43.22057 6.53258 11443 ft 296 kts 271°
2026-05-06 21:14 43.22094 6.50428 11286 ft 295 kts 271°
2026-05-06 21:14 43.22133 6.47629 11128 ft 294 kts 271°
2026-05-06 21:14 43.22172 6.44850 10971 ft 293 kts 271°
2026-05-06 21:14 43.22211 6.42047 10813 ft 292 kts 272°
2026-05-06 21:15 43.22250 6.39297 10658 ft 290 kts 272°
2026-05-06 21:15 43.22292 6.36519 10502 ft 290 kts 272°
2026-05-06 21:15 43.22332 6.33783 10351 ft 285 kts 271°
2026-05-06 21:15 43.22371 6.31114 10208 ft 276 kts 271°
2026-05-06 21:16 43.22408 6.28520 10060 ft 268 kts 272°
2026-05-06 21:16 43.22443 6.25980 9913 ft 263 kts 272°
2026-05-06 21:16 43.22478 6.23482 9756 ft 262 kts 272°
2026-05-06 21:16 43.22512 6.20954 9609 ft 262 kts 272°
2026-05-06 21:17 43.22546 6.18449 9451 ft 262 kts 272°
2026-05-06 21:17 43.22578 6.15987 9301 ft 261 kts 272°
2026-05-06 21:17 43.22610 6.13494 9149 ft 261 kts 272°
2026-05-06 21:17 43.22637 6.11010 9000 ft 260 kts 272°
2026-05-06 21:18 43.22659 6.08536 8863 ft 260 kts 272°
2026-05-06 21:18 43.22681 6.06039 8724 ft 261 kts 272°
2026-05-06 21:18 43.22703 6.03585 8582 ft 260 kts 272°
2026-05-06 21:18 43.22765 6.01115 8446 ft 258 kts 277°
2026-05-06 21:19 43.22983 5.98706 8308 ft 257 kts 279°
2026-05-06 21:19 43.23230 5.96262 8174 ft 257 kts 279°
2026-05-06 21:19 43.23474 5.93824 8026 ft 257 kts 279°
2026-05-06 21:19 43.23710 5.91430 7886 ft 257 kts 279°
2026-05-06 21:20 43.23949 5.88998 7750 ft 258 kts 279°
2026-05-06 21:20 43.24109 5.87362 7655 ft 258 kts 279°
2026-05-06 21:20 43.24425 5.84124 7466 ft 257 kts 279°
2026-05-06 21:20 43.24665 5.81655 7330 ft 256 kts 279°
2026-05-06 21:21 43.24902 5.79225 7190 ft 256 kts 279°
2026-05-06 21:21 43.25136 5.76806 7052 ft 255 kts 279°
2026-05-06 21:21 43.25370 5.74395 6918 ft 254 kts 279°
2026-05-06 21:21 43.25602 5.71988 6780 ft 255 kts 279°
2026-05-06 21:22 43.25832 5.69598 6674 ft 252 kts 279°
2026-05-06 21:22 43.26059 5.67235 6670 ft 253 kts 279°
2026-05-06 21:22 43.26289 5.64837 6670 ft 254 kts 279°
2026-05-06 21:22 43.26520 5.62429 6672 ft 254 kts 279°
2026-05-06 21:23 43.26696 5.59985 6496 ft 257 kts 269°
2026-05-06 21:23 43.26393 5.57609 6254 ft 256 kts 258°
2026-05-06 21:23 43.25929 5.55248 6004 ft 254 kts 256°
2026-05-06 21:23 43.25457 5.52923 5751 ft 252 kts 257°
2026-05-06 21:24 43.24992 5.50621 5486 ft 250 kts 257°
2026-05-06 21:24 43.24539 5.48375 5243 ft 245 kts 257°
2026-05-06 21:24 43.24083 5.46117 5016 ft 240 kts 257°
2026-05-06 21:24 43.23651 5.43979 4970 ft 231 kts 257°
2026-05-06 21:25 43.23233 5.41910 4965 ft 219 kts 257°
2026-05-06 21:25 43.22973 5.39910 4964 ft 206 kts 270°
2026-05-06 21:25 43.22948 5.37997 4964 ft 196 kts 271°
2026-05-06 21:25 43.22957 5.36144 4962 ft 192 kts 279°
2026-05-06 21:26 43.23409 5.34469 4959 ft 190 kts 306°
2026-05-06 21:26 43.24425 5.33325 4955 ft 186 kts 335°
2026-05-06 21:26 43.25652 5.32985 4833 ft 176 kts 353°
2026-05-06 21:26 43.26857 5.32910 4600 ft 176 kts 355°
2026-05-06 21:27 43.28089 5.32873 4282 ft 176 kts 355°
2026-05-06 21:27 43.29304 5.32820 3961 ft 175 kts 348°
2026-05-06 21:27 43.30489 5.32441 3591 ft 170 kts 342°
2026-05-06 21:27 43.31607 5.32013 3232 ft 168 kts 341°
2026-05-06 21:28 43.32724 5.31586 2856 ft 163 kts 341°
2026-05-06 21:28 43.33799 5.31177 2532 ft 159 kts 340°
2026-05-06 21:28 43.34838 5.30782 2340 ft 150 kts 340°
2026-05-06 21:28 43.35777 5.30425 2209 ft 135 kts 340°
2026-05-06 21:29 43.36670 5.30084 2118 ft 132 kts 339°
2026-05-06 21:29 43.37554 5.29744 1994 ft 131 kts 336°
2026-05-06 21:29 43.38318 5.29095 1885 ft 131 kts 313°
2026-05-06 21:29 43.38963 5.28197 1626 ft 129 kts 310°
2026-05-06 21:30 43.39570 5.27334 1424 ft 126 kts 310°
2026-05-06 21:30 43.40175 5.26474 1193 ft 123 kts 311°
2026-05-06 21:30 43.40780 5.25633 928 ft 127 kts 311°
2026-05-06 21:30 43.41390 5.24779 702 ft 126 kts 310°
2026-05-06 21:31 43.41998 5.23902 480 ft 125 kts 310°
2026-05-06 21:31 43.42594 5.23040 265 ft 127 kts 310°
2026-05-06 21:31 43.43211 5.22160 103 ft 128 kts 310°
2026-05-06 21:31 43.43788 5.21336 30 ft 100 kts 314°
2026-05-06 21:32 43.44141 5.20828 20 ft 46 kts 313°
2026-05-06 21:32 43.44514 5.20303 16 ft 19 kts 315°
2026-05-06 21:32 43.44603 5.20217 16 ft 15 kts 359°
2026-05-06 21:33 43.44672 5.20319 16 ft 14 kts 87°
2026-05-06 21:33 43.44624 5.20413 16 ft 11 kts 136°
2026-05-06 21:33 43.44561 5.20501 16 ft 14 kts 134°
2026-05-06 21:33 43.44484 5.20612 16 ft 16 kts 133°
2026-05-06 21:34 43.44400 5.20732 18 ft 18 kts 134°
2026-05-06 21:34 43.44318 5.20858 19 ft 17 kts 122°
2026-05-06 21:34 43.44262 5.20987 20 ft 14 kts 125°
2026-05-06 21:34 43.44220 5.21057 21 ft 5 kts 131°
2026-05-06 21:35 43.44194 5.21112 22 ft 8 kts 105°
2026-05-06 21:35 43.44214 5.21211 22 ft 10 kts 62°
2026-05-06 21:35 43.44248 5.21298 21 ft 9 kts 62°
2026-05-06 21:35 43.44253 5.21354 21 ft 6 kts 120°
2026-05-06 21:36 43.44224 5.21400 21 ft 5 kts 133°
2026-05-06 21:36 43.44216 5.21412 21 ft 0 kts 134°